AirNav   Air Wisconsin pilot careers
 
 371 users online  

0IN6 Morrison Flight Park
Linton, Indiana, USA

GOING TO LINTON?


FAA INFORMATION EFFECTIVE 24 MAY 2018

Location

FAA Identifier: 0IN6
Lat/Long: 39-01-18.2000N / 087-11-13.4000W
39-01.303333N / 087-11.223333W
39.0217222 / -87.1870556
(estimated)
Elevation: 520 ft. / 158 m (estimated)
Variation: 02W (1995)
From city: 2 miles SW of LINTON, IN
Time zone: UTC -4 (UTC -5 during Standard Time)
Zip code: 47441

Ultralight Flight Park Operations

Ultralight Flight Park use: Private use. Permission required prior to landing
Activation date: 05/1999
Control tower: no
ARTCC: INDIANAPOLIS CENTER
FSS: TERRE HAUTE FLIGHT SERVICE STATION
Attendance: UNATNDD
Wind indicator: yes
Segmented circle: no

Ultralight Flight Park Communications

WX AWOS-3PT at DCY (19 nm S): 124.1 (812-257-8889)

Nearby radio navigation aids

VOR radial/distance  VOR name  Freq  Var
LWVr053/24.6LAWRENCEVILLE VOR/DME108.8001W
OOMr257/27.7HOOSIER VORTAC110.2002W
TTHr172/28.2TERRE HAUTE VORTAC115.3002E

 
NDB name  Hdg/Dist  Freq  Var  ID
SULLIVAN116/13.332602WSIV ... .. ...-
PALESTINE092/21.239103WPLX .--. .-.. -..-

Ultralight Flight Park Services

Runway Information

Runway 18U/36U

Dimensions: 1225 x 70 ft. / 373 x 21 m
Surface: turf, in good condition
RUNWAY 18U  RUNWAY 36U
Latitude: 39-01.404000N39-01.202167N
Longitude: 087-11.227333W087-11.220500W
Traffic pattern: leftleft
Displaced threshold: no225 ft.
RY 36 DSPLCD THLD MKD WITH 2 YELLOW TIRES ON EACH SIDE OF RY.
Obstructions: none15 ft. road, 10 ft. from runway
RWY 36U APP SLOPE TO DSPLCD T-HOLD 15:1.

Ultralight Flight Park Ownership and Management from official FAA records

Ownership: Privately-owned
Owner: LESTER W. MORRISON
13062 W 25 S
LINTON, IN 04741
Phone 812-847-2321
Manager: LESTER W. MORRISON
13062 W 25 S
LINTON, IN 47441
Phone 812-847-2321

Ultralight Flight Park Operational Statistics

Aircraft based on the field: 2
Ultralights: 2
    
Aircraft operations: avg 35/month *
90% local general aviation
10% transient general aviation
* for 12-month period ending 31 December 2003

Additional Remarks

400 FT TOWER 900 FT NW OF RY 36 & 390 FT TOWER 1/2 MILE ENE OF RY 36.

Instrument Procedures

There are no published instrument procedures at 0IN6.

Some nearby airports with instrument procedures:

KSIV - Sullivan County Airport (13 nm NW)
KDCY - Daviess County Airport (19 nm S)
KRSV - Crawford County Airport (22 nm W)
KLWV - Lawrenceville-Vincennes International Airport (25 nm SW)
KHUF - Terre Haute Regional Airport (26 nm N)
 
Loc | Ops | Rwys | IFR | FBO | Links
Com | Nav | Svcs | Stats | Notes

AirNav Hotels Sweepstakes
 
Area around 0IN6 (Morrison Flight Park)
 
Road maps at: MapQuest Bing Google
 
Aerial photo
WARNING: Photo may not be current or correct
Aerial photo of 0IN6 (Morrison Flight Park)
Do you have a better or more recent aerial photo of Morrison Flight Park that you would like to share? If so, please send us your photo.

 
Sectional chart

 
Airport distance calculator
Flying to Morrison Flight Park? Find the distance to fly.

From to 0IN6

Sunrise and sunset
Times for 27-May-2018
 Local
(UTC-4)
 Zulu
(UTC)
Morning civil twilight05:5709:57
Sunrise06:2810:28
Sunset21:0401:04
Evening civil twilight21:3501:35

Current date and time
Zulu (UTC)  27-May-2018 06:21:02
Local (UTC-4)  27-May-2018 02:21:02
 
METAR
KDCY 
19nm S 
270555Z AUTO 00000KT 10SM SCT050 SCT120 24/19 A2985 RMK AO2 T02390188 10272 20235 403150200
KRSV 
22nm W 
270555Z AUTO 20003KT 10SM CLR 21/20 A2985 RMK AO2 T02120197 10293 20209 403250190
KLWV 
25nm SW 
270553Z AUTO 00000KT 10SM CLR 24/19 A2985 RMK AO2 SLP102 T02390194 10311 20239 403330206 53001
KHUF 
27nm N 
270553Z 00000KT 10SM CLR 21/19 A2984 RMK AO2 SLP100 T02110194 10294 20211 51003
KBMG 
28nm E 
270553Z AUTO 20008KT 10SM CLR 23/20 A2986 RMK AO2 LTG DSNT E AND SE SLP103 T02330200 10278 20228 50004
KAJG 
35nm SW 
270555Z AUTO 00000KT 10SM CLR 24/20 A2985 RMK AO2 T02410202 10310 20241 403260203
TAF
KHUF 
27nm N 
261720Z 2618/2718 25007KT P6SM SCT025 BKN070 FM262000 25007KT P6SM SCT110 FM270300 VRB03KT P6SM FEW250
KBMG 
28nm E 
261720Z 2618/2718 24008KT P6SM SCT025 BKN060 FM262100 22008KT P6SM SCT110 FM270200 19004KT P6SM SCT250
NOTAMs
Click for the latest NOTAMs
NOTAMs are issued by the DoD/FAA and will open in a separate window not controlled by AirNav.

 

 
 

Would you like to see your business listed on this page?

 If your business provides an interesting product or service to pilots, flight crews, aircraft, or users of the Morrison Flight Park, you should consider listing it here.  To start the listing process, click on the button below
 
Add a business
 

Other Pages about Morrison Flight Park

flightpark4u8.homestead.com
 
Update a link
 
Copyright © AirNav, LLC. All rights reserved. Privacy Policy  Contact